Back to catalog

JILIN-1 GAOFEN 07C 04 XING

AliveScienceSSO
NORAD 69538·PAYLOAD·🇨🇳 China
This satellite name has not been confirmed by official sources yet.

Launched Jun 15, 2026 from Jiuquan Satellite Launch Center

Loading…

Next Passes (next 24 hours)

TLE

FreshSource: Space-Track

Epoch: Sep 14, 2026, 13:41 UTC

1 69538U 26134A   26257.57056345  .00003257  00000-0  21140-3 0  9992
2 69538  97.6932 327.9639 0015266 331.7223  28.3175 15.08699172 13793

Track JILIN-1 GAOFEN 07C 04 XING in real time with AllMySat

Download on the App Store